Regional Weather Roundup
Issued by NWS Green Bay, WI

Home | Current Version | Previous Version | Text Only | Print | Product List | Glossary On
Versions: 1 2 3 4 5 6 7 8 9 10 11 12 13 14 15 16 17 18 19 20 21 22 23 24 25 26 27 28 29 30 31 32 33 34 35 36 37 38 39 40 41 42 43 44 45 46 47 48 49 50
000
ASUS43 KGRB 200859
RWRGRB

NORTH-CENTRAL AND NORTHEAST WISCONSIN REGIONAL WEATHER ROUNDUP
NATIONAL WEATHER SERVICE GREEN BAY WI
300 AM CST SAT DEC 20 2014

WIZ005-009-010>012-018-019-201000-
NORTH CENTRAL WISCONSIN

CITY           SKY/WX    TMP DP  RH WIND       PRES   REMARKS
IRONWOOD       CLOUDY    25  21  86 S7        30.15R
MANITOWISH WTR NOT AVBL
ARBOR VITAE    NOT AVBL
EAGLE RIVER    NOT AVBL
LAND O LAKES   NOT AVBL
RHINELANDER    CLOUDY    20  18  92 S5        30.19S
PHILLIPS       NOT AVBL
ANTIGO         NOT AVBL
TOMAHAWK       NOT AVBL
MERRILL        NOT AVBL
$$

WIZ013-073-201000-
NORTHEAST WISCONSIN

CITY           SKY/WX    TMP DP  RH WIND       PRES   REMARKS
IRON MOUNTAIN  FOG       13   9  84 CALM      30.22R VSB 1/4
MARINETTE      PTCLDY    12  10  92 CALM      30.26S
$$

WIZ017-030-035>037-045-201000-
CENTRAL WISCONSIN

CITY           SKY/WX    TMP DP  RH WIND       PRES   REMARKS
MEDFORD        NOT AVBL
WAUSAU         CLOUDY    24  21  88 S6        30.21S
MOSINEE        NOT AVBL
MARSHFIELD     CLOUDY    24  21  88 S6        30.21S FOG
WISC RAPIDS    CLOUDY    23  19  85 S5        30.26R
STEVENS POINT  NOT AVBL
WAUPACA        NOT AVBL
SHAWANO        NOT AVBL
CLINTONVILLE   NOT AVBL
$$

WIZ038-039-048-051-201000-
FOX VALLEY

CITY           SKY/WX    TMP DP  RH WIND       PRES   REMARKS
NWS GREEN BAY  CLOUDY    22  19  89 CALM      30.28R
APPLETON       NOT AVBL
OSHKOSH        MOCLDY    21  17  84 CALM      30.27R
FOND DU LAC    MOCLDY    20  16  84 CALM      30.27R
$$

WIZ022-050-052-201000-
EAST CENTRAL WISCONSIN

CITY           SKY/WX    TMP DP  RH WIND       PRES   REMARKS
STURGEON BAY   CLOUDY    21  18  86 CALM      30.28S
MANITOWOC      NOT AVBL
SHEBOYGAN      CLOUDY    27  21  78 W7        30.27R
$$

LMZ563-521-522-541>543-201000-
LAKESHORE

STATION/POSITION TIME  TEMP    WIND        PRES    VSBY  WAVE
                       AIR SEA DIR/SP/G                  HT/PER
                 (UTC) (F)     (DEG/KT/KT) (MB)    (MI)  (FT/S)
SHEBOYGAN LKSHOR 0800   29 34  260/  6/  7 1025.8R
KEWAUNEE LKSHORE 0800   27     300/  2/  5 1023.9R
NORTHPORT PIER   0800   21     210/  2/  4 1025.1S
SISTER BAY LKSHO 0800             CALM       N/A
CHAMBERS ISLAND  0800   24     220/  2/  5 1025.1S
MENOMINEE LKSHOR 0800   22     240/  3/  4 1025.5R
$$



USA.gov is the U.S. government's official web portal to all federal, state and local government web resources and services.